Cloud_Cover
96 100 100 100 100 100 100 100 100 100 99 78 87 14 6 5 5 68 67 5 5 5 0 0 0 0 0 0 0 1 0 0 1
37 9 100 100 100 100 100 100 100 100 100 100 100 100 82 9 5 26 60 35 5 8 5 5 5 0 12 2 3 11 0 1 0
100 91 72 96 100 100 100 100 100 100 100 100 100 99 100 88 80 64 32 93 12 99 87 7 14 5 5 4 0 3 0 2 0
48 55 100 99 37 100 100 100 100 100 100 100 100 100 100 100 100 100 100 96 12 56 100 62 96 11 5 56 5 21 5 5 8
5 6 5 9 88 85 47 59 100 100 100 100 100 100 100 100 99 96 100 100 96 100 100 100 9 86 69 17 89 86 83 5 5
41 46 12 74 11 87 96 20 6 93 100 100 100 100 100 94 100 87 97 100 100 100 100 100 99 35 99 94 64 100 100 89 22
0 33 97 92 100 79 88 46 2 2 74 100 100 100 100 100 100 99 99 100 100 100 100 100 99 86 97 89 100 96 100 100 100
0 0 0 0 45 59 8 15 6 4 1 12 100 100 100 100 100 100 98 100 100 100 100 100 94 100 95 100 99 100 100 100 100
0 0 0 0 0 0 0 5 13 47 5 0 1 100 95 100 100 100 100 100 100 100 100 100 100 100 96 100 100 100 100 100 100
0 0 0 0 0 1 0 0 0 23 80 6 0 2 98 100 100 100 100 100 100 100 100 100 100 100 100 100 100 100 100 100 100
0 0 0 0 0 2 5 4 4 2 0 40 5 1 2 100 100 100 100 100 100 100 100 100 100 100 100 100 100 100 100 100 100
0 0 0 0 0 0 5 5 5 69 9 4 0 5 0 0 100 100 100 100 100 100 100 100 100 100 100 100 100 100 100 100 100
0 0 0 0 0 0 0 5 22 53 5 5 0 0 0 0 0 59 100 100 100 100 100 100 100 100 100 100 100 100 100 100 88
4 1 0 0 0 0 0 1 16 5 5 3 5 4 0 0 0 0 73 100 100 100 100 100 100 90 100 100 100 100 100 100 100
5 5 5 1 0 0 0 0 5 5 25 5 3 0 0 0 0 0 0 99 100 100 100 100 95 100 88 100 100 100 100 100 100
5 19 6 5 5 0 0 0 5 34 5 5 5 0 0 0 0 0 0 0 44 100 100 100 100 100 100 100 100 100 100 100 100
56 29 36 5 10 5 0 0 2 7 5 43 25 5 0 0 0 0 0 0 0 24 100 100 100 100 100 100 100 100 100 100 100
100 88 34 24 100 86 6 3 0 94 17 5 73 10 0 0 0 0 0 0 0 0 64 100 100 100 100 100 100 100 100 100 100
100 100 94 29 85 81 99 84 39 34 100 100 90 5 2 0 3 0 0 0 0 0 0 21 100 100 100 100 100 100 100 100 100
100 100 100 100 91 98 100 100 99 5 30 100 100 6 2 7 5 5 0 0 0 0 0 4 29 62 100 100 100 100 100 100 100